STARLINK-3199, 49760

Orbit data source: Space-Track

STARLINK-3199, 49760 is a payload satellite owned by SpaceX/Seattle (US) in LEO that was launched on Thu, 02 Dec 2021 UTC via an FALCON 9 launch vehicle from the Air Force Eastern Test Range (AFETR). Payload-class satellites include a variety of spacecraft equipped with specific instruments for various scientific and technological missions. These include communications satellites like Starlink; space stations such as the ISS; scientific satellites like the Hubble; Earth observation satellites from companies like Planet Labs, Umbra, and HawkEye 360; GPS; miniature CubeSats for education and research; and military/defense satellites.

Loading next visibility...
Identifier
49760, 2021-115AN
Orbit
LEO
Country
Flag of USUS
Related business
Manufacturer
SpaceX/Seattle
Mission
Operational Commercial Communications
Bus & Motor
STARLINK, Unknown motor
Mass
290 kg wet, ~270 kg dry
Launch date (UTC)
2021-12-02 (5 years ago)
Launch vehicle
FALCON 9
Launch site
Air Force Eastern Test Range (AFETR)
Object type
Payload
Rocket body
Debris
Shape & HBR
Box + 1 Pan, 10.1 m
Radar Cross Section
13.562 m², Large (>1 m²)

Expand to show TLE details & history
Last TLE update: 3 days ago

TLE from 3 days ago
0 STARLINK-3199
1 49760U 21115AN  26170.91022797  .00000388  00000-0  42463-4 0  9991
2 49760  53.1602  40.1278 0001365  66.3975 293.7160 15.08839079251116
Epoch: 2026-06-19T21:50Z
TLE epoch observation values (Epoch: 2026-06-19T21:50:43.696Z)
Latitude
-0°
Longitude
164.3133°
Altitude
540.258 km
Speed
7.594 km/s
True Right ascension
02h 40m 30s
True Declination
0° 00' 00"
Sunlit
Object was in daylight at epoch
Visualization orbit readout
Latitude
Unknown
Longitude
Unknown
Altitude
Unknown
Speed
Unknown
Apparent Right ascension
Unknown
Apparent Declination
Unknown
Sunlit
N/A
Visualization observer readout
Local Sidereal Time
21:31:53
Azimuth
Unknown
Elevation
Unknown
Doppler factor
Unknown
Orbital elements
Apogee altitude
540.945 km
Perigee altitude
539.056 km
Semi-major axis
6,918.137 km
Eccentricity
0.00014
Inclination
53.1602°
RAAN
40.1278°
Arg. of periapsis
66.3975°
True anomaly
293.70168°
Mean anomaly
293.716°
Eccentric anomaly
293.70884°
Mean motion
3.77189 °/min
Orbital period
95.44 mins
BSTAR
0.000042463
Loading maneuver chart data...
Computing Atmospheric mass density...
Loading historical data...
Loading historical data...
Loading historical data...
Loading historical data...
Loading historical data...
Loading historical data...
Loading historical data...

Documentation

Showing up to 5 results
|